Preview of NWS' New Version of Forecast
This preview is not operational and should not be used for support decisions.

Regional Weather Roundup (RWR)

Issued by National Weather Service (NWS)

                            
000
ASUS43 KMKX 201410
RWRWI 

WISCONSIN REGIONAL WEATHER ROUNDUP
NATIONAL WEATHER SERVICE MILWAUKEE/SULLIVAN WI
900 AM CDT SAT APR 20 2019

NOTE: "FAIR" INDICATES FEW OR NO CLOUDS BELOW 12,000 FEET WITH NO
SIGNIFICANT WEATHER AND/OR OBSTRUCTIONS TO VISIBILITY.

WIZ001-002-006>008-014>016-023>028-201500-
NORTHWEST WISCONSIN
  
CITY           SKY/WX    TMP DP  RH WIND       PRES   REMARKS
SUPERIOR ARPT  FAIR      49  35  58 CALM      29.80F                  
ASHLAND        FAIR      53  31  42 S12       29.84F                  
HAYWARD        FAIR      52  31  44 S10       29.85F                  
SIREN          FAIR      57  29  34 SW15      29.83F                  
CUMBERLAND     FAIR      48  32  53 S8        29.86F                  
RICE LAKE      FAIR      47  33  57 SE8       29.88F                  
CHETEK         FAIR      48  32  53 E5        29.88F                  
LADYSMITH      FAIR      49  29  44 S8        29.90F                  
EAU CLAIRE     FAIR      49  30  48 S7        29.89F                  
MENOMONIE      FAIR      42  32  68 E5        29.90F                  
NEW RICHMOND   FAIR      54  32  43 S10G16    29.86F                  
OSCEOLA        FAIR      54  34  46 S10       29.88F                  
$$
 
WIZ003>005-009-010-017-018-201500-
NORTH CENTRAL WISCONSIN
  
CITY           SKY/WX    TMP DP  RH WIND       PRES   REMARKS
MANITOWISH WTR FAIR      49  20  33 S7        29.88F                  
ARBOR VITAE    FAIR      49  17  27 S9        29.89F                  
WOODRUFF       FAIR      49  17  27 S9        29.89F                  
RHINELANDER    NOT AVBL                                               
EAGLE RIVER    FAIR      47  17  30 SW3       29.89F                  
LAND O LAKES   FAIR      48  18  30 S3        29.91F                  
PHILLIPS       FAIR      48  20  32 S8        29.89F                  
TOMAHAWK       FAIR      47  20  34 CALM      29.91F                  
MEDFORD        FAIR      45  28  50 S6        29.91S                  
MERRILL        FAIR      43  28  56 CALM      29.93F                  
$$
 
WIZ029-030-035-036-043>047-201500-
CENTRAL WISCONSIN
  
CITY           SKY/WX    TMP DP  RH WIND       PRES   REMARKS
WAUSAU         NOT AVBL                                               
MOSINEE        SUNNY     46  19  34 VRB5      29.94F                  
MARSHFIELD     NOT AVBL                                               
STEVENS POINT  FAIR      45  19  35 CALM      29.94S                  
WAUPACA        FAIR      49  24  36 NW5       29.94S                  
WAUTOMA        NOT AVBL                                               
WISC RAPIDS    FAIR      49  19  30 CALM      29.94S                  
CAMP DOUGLAS   FAIR      47  30  51 CALM      29.94                   
$$
 
WIZ011>013-019>022-031-037>040-048>050-201500-
NORTHEAST WISCONSIN
  
CITY           SKY/WX    TMP DP  RH WIND       PRES   REMARKS
ANTIGO         FAIR      45  23  41 CALM      29.93S                  
SHAWANO        FAIR      48  40  74 CALM      29.93F                  
OCONTO         FAIR      44  26  49 NW3       29.93F                  
STURGEON BAY   FAIR      45  27  49 NE5       29.92F                  
GREEN BAY      FAIR      47  25  42 N6        29.93S                  
MANITOWOC      FAIR      43  27  53 N7        29.92F                  
APPLETON       SUNNY     45  18  33 N7        29.91S                  
CLINTONVILLE   FAIR      46  23  41 CALM      29.93F                  
OSHKOSH        FAIR      46  22  38 NE5       29.92S                  
$$
 
WIZ032>034-041-042-053>061-201500-
SOUTHWEST WISCONSIN
  
CITY           SKY/WX    TMP DP  RH WIND       PRES   REMARKS
LA CROSSE      FAIR      48  33  56 SE6       29.93F                  
SPARTA         FAIR      45  31  59 CALM      29.94F                  
VIROQUA        FAIR      52  26  36 S5        29.93F                  
BOSCOBEL       FAIR      45  32  60 CALM      29.95F                  
PRAIRIE DU CHI FAIR      44  33  64 CALM      29.95S                  
PLATTEVILLE    FAIR      48  29  46 N5        29.94S                  
$$

WIZ056-057-062-063-064-067-068-201500-
SOUTH CENTRAL WISCONSIN
  
CITY           SKY/WX    TMP DP  RH WIND       PRES   REMARKS
REEDSBURG      FAIR      43  29  59 CALM      29.94S                  
BARABOO/DELLS  FAIR      46  27  47 CALM      29.93S                  
LONE ROCK      FAIR      45  32  60 W3        29.95S                  
MINERAL POINT  FAIR      52  27  37 N5        29.93S                  
MADISON        FAIR      47  25  42 N7        29.93R                  
MIDDLETON      FAIR      48  28  44 N5        29.93F                  
WATERTOWN      FAIR      45  27  49 N7        29.91S                  
MONROE         FAIR      48  22  35 MISG      29.92S                  
JANESVILLE     SUNNY     48  21  34 N7        29.91S                  
$$
 
WIZ051-052-058>065-066-070>072-201500-
SOUTHEAST WISCONSIN
  
CITY           SKY/WX    TMP DP  RH WIND       PRES   REMARKS
MILWAUKEE      FAIR      46  26  45 N16G25    29.89R                  
WAUKESHA       SUNNY     45  21  39 N10       29.91R                  
MILWAUKEE/TIMM SUNNY     46  19  34 N10       29.90R                  
RACINE         FAIR      45  28  51 N18G28    29.89R                  
KENOSHA        FAIR      49  28  44 N13G25    29.87R                  
FOND DU LAC    FAIR      44  29  55 NW8       29.92S                  
SHEBOYGAN      FAIR      47  27  45 N10       29.91S                  
WEST BEND      FAIR      46  23  39 NE8       29.90S                  
JUNEAU         FAIR      44  28  52 N8        29.92S                  
$$

LSZ147-162-201500-
LAKE SUPERIOR
  
STATION/POSITION TIME  TEMP    WIND        PRES    WAVE
                       AIR SEA DIR/SP/G            HT/PER
                 (UTC) (F)     (DEG/KT/KT) (MB)    (FT/S)
$$
 
LMZ867-665-643>646-201500-
LAKE MICHIGAN
  
STATION/POSITION TIME  TEMP    WIND        PRES    WAVE
                       AIR SEA DIR/SP/G            HT/PER
                 (UTC) (F)     (DEG/KT/KT) (MB)    (FT/S)
NORTHPORT PIER   1340   36     320/  3/  4 1013.5S
KEWAUNEE LAKESHO 1348   45     360/  2/  7 1012.4F
SHEBOYGAN LAKESH 1400   41     360/ 13/ 15 1013.0R
MILWAUKEE LAKESH 1350   44                   N/A
KENOSHA   LAKESH 1400   43      10/ 21/ 23 1011.2
$$

TC  - TEMPERATURE IN CELSIUS
VSB - VISIBILITY IN STATUTE MILES
WCI - WIND CHILL INDEX
HX  - HEAT INDEX